This is the latest recevied weather packets stored in our database for station/object EA7URS-13. If no packets are shown the sender has not sent any weather packets the latest 10 day(s).
| Time | Temp. | Humidity | Pressure | Rain* | Wind** | Luminosity | Snow |
|---|---|---|---|---|---|---|---|
| 1788256714 | 28.89° C | 35% | 1010.7 hPa | 0 mm | - | 512 W/m² | - |
| 1788256413 | 28.33° C | 36% | 1010.6 hPa | 0 mm | - | 488 W/m² | - |
| 1788256112 | 28.33° C | 36% | 1010.6 hPa | 0 mm | - | 488 W/m² | - |
| 1788255811 | 28.33° C | 36% | 1010.7 hPa | 0 mm | - | 400 W/m² | - |
| 1788255510 | 28.33° C | 36% | 1010.7 hPa | 0 mm | - | 400 W/m² | - |
| 1788255220 | 28.33° C | 37% | 1010.7 hPa | 0 mm | - | 439 W/m² | - |
| 1788254907 | 28.33° C | 37% | 1010.7 hPa | 0 mm | - | 439 W/m² | - |
| 1788254606 | 27.78° C | 39% | 1010.4 hPa | 0 mm | - | 414 W/m² | - |
| 1788254305 | 27.78° C | 39% | 1010.4 hPa | 0 mm | - | 414 W/m² | - |
| 1788254004 | 27.22° C | 40% | 1010.5 hPa | 0 mm | - | 391 W/m² | - |
| 1788253703 | 27.22° C | 40% | 1010.5 hPa | 0 mm | - | 391 W/m² | - |
| 1788253402 | 27.22° C | 41% | 1010.7 hPa | 0 mm | - | 361 W/m² | - |
| 1788253101 | 27.22° C | 41% | 1010.7 hPa | 0 mm | - | 361 W/m² | - |
| 1788252800 | 26.67° C | 42% | 1010.7 hPa | 0 mm | - | 330 W/m² | - |
| 1788252499 | 26.67° C | 42% | 1010.7 hPa | 0 mm | - | 330 W/m² | - |
| 1788252198 | 25.56° C | 44% | 1010.9 hPa | 0 mm | - | 305 W/m² | - |
| 1788251897 | 25.56° C | 44% | 1010.9 hPa | 0 mm | - | 305 W/m² | - |
| 1788251596 | 25.56° C | 43% | 1010.6 hPa | 0 mm | - | 281 W/m² | - |
| 1788251295 | 25.56° C | 43% | 1010.6 hPa | 0 mm | - | 281 W/m² | - |
| 1788250994 | 25.56° C | 43% | 1010.7 hPa | 0 mm | - | 254 W/m² | - |
| 1788250693 | 25.56° C | 43% | 1010.7 hPa | 0 mm | - | 254 W/m² | - |
| 1788250391 | 23.89° C | 46% | 1010.6 hPa | 0 mm | - | 224 W/m² | - |
| 1788250091 | 23.89° C | 46% | 1010.6 hPa | 0 mm | - | 224 W/m² | - |
| 1788249790 | 23.33° C | 48% | 1010.5 hPa | 0 mm | - | 200 W/m² | - |
| 1788249489 | 23.33° C | 48% | 1010.5 hPa | 0 mm | - | 200 W/m² | - |
* Rain latest hour (hover to see other rain measurements)
** Current wind speed in m/s (hover to see current wind gust speed)